Weather History for Mojave, CA

Change the Weather History Date:

Tuesday, October 9, 2012

  Actual Average Record
Temperature  
Mean Temperature 67 °F -  
Max Temperature 77 °F 80 °F 95 °F (1980)
Min Temperature 57 °F 51 °F 41 °F (1975)
Cooling Degree Days 2    
Growing Degree Days 17 (Base 50)    
Moisture  
Dew Point 41 °F    
Average Humidity 44    
Maximum Humidity 63    
Minimum Humidity 22    
Precipitation  
Precipitation 0.00 in - - ()
Sea Level Pressure  
Sea Level Pressure 29.97 in    
Wind  
Wind Speed 13 mph (West)    
Max Wind Speed 21 mph    
Max Gust Speed 29 mph    
Visibility 10 miles    
Events      
Averages and records for this station are not official NWS values.
T = Trace of Precipitation, MM = Missing Value Source: NWS Daily Summary

Daily Weather History Graph

Daily Weather History Graph

Search for Another Location

Airport:

Trip Planner

Search our weather history database for the weather conditions in past years. The results will help you decide how hot, cold, wet, or windy it might be!

Date:

Astronomy

Oct. 09, 2012 Rise Set
Actual Time 6:54 AM PDT 6:24 PM PDT
Civil Twilight 6:28 AM PDT 6:50 PM PDT
Nautical Twilight 5:59 AM PDT 7:19 PM PDT
Astronomical Twilight 5:30 AM PDT 7:48 PM PDT
Moon 12:48 AM PDT (10/9) 2:43 PM PDT (10/9)
Length of Visible Light 12h 21m
Length of Day
11h 30m
Waning Crescent, 35% of the Moon is Illuminated
Oct 9
Waning Crescent
Oct 15
New
Oct 21
First Quarter
Oct 29
Full
Nov 6
Last Quarter

Hourly Weather History & Observations

Time (PDT) Temp. Dew Point Humidity Pressure Visibility Wind Dir Wind Speed Gust Speed Precip Events Conditions
12:35 AM 62.6 °F 44.6 °F 52% 29.98 in 10.0 mi WNW 17.3 mph 28.8 mph N/A   Clear
12:55 AM 62.6 °F 44.6 °F 52% 29.98 in 10.0 mi WNW 19.6 mph 24.2 mph N/A   Clear
1:10 AM 62.6 °F 46.4 °F 55% 29.98 in 10.0 mi WNW 20.7 mph 25.3 mph N/A   Clear
1:30 AM 60.8 °F 46.4 °F 59% 29.98 in 10.0 mi WNW 18.4 mph 21.9 mph N/A   Clear
1:55 AM 60.8 °F 46.4 °F 59% 29.98 in 10.0 mi WNW 16.1 mph - N/A   Clear
2:15 AM 59.0 °F 46.4 °F 63% 29.98 in 10.0 mi NW 10.4 mph - N/A   Clear
2:35 AM 59.0 °F 46.4 °F 63% 29.98 in 10.0 mi WNW 17.3 mph 24.2 mph N/A   Clear
2:55 AM 59.0 °F 46.4 °F 63% 29.98 in 10.0 mi NW 12.7 mph 20.7 mph N/A   Clear
3:15 AM 59.0 °F 46.4 °F 63% 29.97 in 10.0 mi WNW 17.3 mph - N/A   Clear
3:35 AM 59.0 °F 46.4 °F 63% 29.97 in 10.0 mi NW 13.8 mph - N/A   Clear
3:55 AM 59.0 °F 44.6 °F 59% 29.97 in 10.0 mi NW 16.1 mph 19.6 mph N/A   Clear
4:15 AM 59.0 °F 44.6 °F 59% 29.96 in 10.0 mi WNW 19.6 mph - N/A   Clear
4:35 AM 60.8 °F 44.6 °F 55% 29.96 in 10.0 mi WNW 12.7 mph - N/A   Clear
4:55 AM 59.0 °F 44.6 °F 59% 29.97 in 10.0 mi WNW 10.4 mph - N/A   Clear
5:15 AM 59.0 °F 42.8 °F 55% 29.96 in 10.0 mi Calm Calm - N/A   Clear
5:35 AM 59.0 °F 42.8 °F 55% 29.97 in 10.0 mi NNW 5.8 mph - N/A   Clear
5:55 AM 57.2 °F 42.8 °F 59% 29.97 in 10.0 mi NW 12.7 mph - N/A   Clear
6:15 AM 59.0 °F 44.6 °F 59% 29.98 in 10.0 mi WNW 12.7 mph 17.3 mph N/A   Clear
6:35 AM 59.0 °F 44.6 °F 59% 29.98 in 10.0 mi WNW 15.0 mph - N/A   Clear
6:50 AM 59.0 °F 44.6 °F 59% 29.98 in 10.0 mi WNW 13.8 mph 18.4 mph N/A   Clear
7:15 AM 59.0 °F 44.6 °F 59% 29.98 in 10.0 mi NW 16.1 mph - N/A   Clear
7:35 AM 59.0 °F 44.6 °F 59% 29.99 in 10.0 mi NNW 9.2 mph 18.4 mph N/A   Clear
7:55 AM 60.8 °F 44.6 °F 55% 29.99 in 10.0 mi NNW 6.9 mph - N/A   Clear
8:15 AM 62.6 °F 42.8 °F 48% 30.00 in 10.0 mi Calm Calm - N/A   Clear
8:35 AM 64.4 °F 42.8 °F 45% 30.00 in 10.0 mi Calm Calm - N/A   Clear
8:55 AM 62.6 °F 42.8 °F 48% 30.00 in 10.0 mi Calm Calm - N/A   Clear
9:15 AM 64.4 °F 42.8 °F 45% 30.00 in 10.0 mi West 4.6 mph - N/A   Clear
9:35 AM 68.0 °F 41.0 °F 37% 30.00 in 10.0 mi West 11.5 mph - N/A   Clear
9:55 AM 68.0 °F 41.0 °F 37% 30.00 in 10.0 mi Calm Calm - N/A   Clear
10:15 AM 69.8 °F 39.2 °F 33% 30.00 in 10.0 mi WSW 9.2 mph - N/A   Clear
10:35 AM 69.8 °F 39.2 °F 33% 30.00 in 10.0 mi SW 9.2 mph 17.3 mph N/A   Clear
10:55 AM 68.0 °F 41.0 °F 37% 30.00 in 10.0 mi West 13.8 mph - N/A   Clear
11:15 AM 69.8 °F 41.0 °F 35% 29.99 in 10.0 mi SW 9.2 mph 18.4 mph N/A   Clear
11:35 AM 71.6 °F 41.0 °F 33% 29.99 in 10.0 mi WSW 6.9 mph 17.3 mph N/A   Clear
11:55 AM 71.6 °F 41.0 °F 33% 29.99 in 10.0 mi WSW 6.9 mph 17.3 mph N/A   Clear
12:15 PM 71.6 °F 39.2 °F 31% 29.97 in 10.0 mi WSW 9.2 mph - N/A   Clear
12:35 PM 73.4 °F 35.6 °F 25% 29.97 in 10.0 mi SSW 12.7 mph 16.1 mph N/A   Clear
12:55 PM 75.2 °F 35.6 °F 24% 29.96 in 10.0 mi SSW 11.5 mph 16.1 mph N/A   Clear
1:15 PM 75.2 °F 35.6 °F 24% 29.95 in 10.0 mi SSW 10.4 mph - N/A   Clear
1:35 PM 75.2 °F 35.6 °F 24% 29.94 in 10.0 mi SSW 4.6 mph 20.7 mph N/A   Clear
1:55 PM 75.2 °F 35.6 °F 24% 29.93 in 10.0 mi SSW 15.0 mph - N/A   Clear
2:15 PM 77.0 °F 35.6 °F 22% 29.93 in 10.0 mi SSW 16.1 mph 21.9 mph N/A   Clear
2:35 PM 77.0 °F 35.6 °F 22% 29.93 in 10.0 mi SSW 13.8 mph 20.7 mph N/A   Clear
2:55 PM 77.0 °F 37.4 °F 24% 29.93 in 10.0 mi WSW 10.4 mph - N/A   Clear
3:15 PM 77.0 °F 37.4 °F 24% 29.93 in 10.0 mi SW 12.7 mph - N/A   Clear
3:35 PM 75.2 °F 39.2 °F 27% 29.93 in 10.0 mi West 13.8 mph - N/A   Clear
3:55 PM 75.2 °F 39.2 °F 27% 29.93 in 10.0 mi West 15.0 mph - N/A   Clear
4:15 PM 73.4 °F 41.0 °F 31% 29.93 in 10.0 mi WNW 15.0 mph 19.6 mph N/A   Clear
4:35 PM 71.6 °F 41.0 °F 33% 29.93 in 10.0 mi West 12.7 mph - N/A   Clear
4:55 PM 71.6 °F 39.2 °F 31% 29.93 in 10.0 mi WNW 11.5 mph - N/A   Clear
5:15 PM 69.8 °F 39.2 °F 33% 29.93 in 10.0 mi WNW 12.7 mph - N/A   Clear
5:35 PM 68.0 °F 39.2 °F 35% 29.93 in 10.0 mi WNW 13.8 mph - N/A   Clear
5:55 PM 69.8 °F 37.4 °F 31% 29.94 in 10.0 mi West 6.9 mph - N/A   Clear
6:15 PM 68.0 °F 33.8 °F 28% 29.94 in 10.0 mi West 10.4 mph - N/A   Clear
6:35 PM 68.0 °F 32.0 °F 26% 29.94 in 10.0 mi West 10.4 mph - N/A   Clear
6:55 PM 68.0 °F 37.4 °F 33% 29.95 in 10.0 mi West 11.5 mph 19.6 mph N/A   Scattered Clouds
7:15 PM 66.2 °F 37.4 °F 35% 29.95 in 10.0 mi WSW 5.8 mph - N/A   Partly Cloudy
7:35 PM 66.2 °F 37.4 °F 35% 29.96 in 10.0 mi West 11.5 mph - N/A   Clear
7:55 PM 66.2 °F 37.4 °F 35% 29.97 in 10.0 mi SW 9.2 mph - N/A   Clear
8:15 PM 64.4 °F 37.4 °F 37% 29.96 in 10.0 mi WSW 8.1 mph - N/A   Clear
8:35 PM 64.4 °F 35.6 °F 34% 29.97 in 10.0 mi SW 9.2 mph - N/A   Clear
8:55 PM 64.4 °F 44.6 °F 49% 29.97 in 10.0 mi SSW 8.1 mph - N/A   Clear
9:15 PM 64.4 °F 44.6 °F 49% 29.97 in 10.0 mi SSW 12.7 mph - N/A   Clear
9:35 PM 62.6 °F 44.6 °F 52% 29.96 in 10.0 mi SW 10.4 mph - N/A   Clear
9:55 PM 62.6 °F 41.0 °F 45% 29.97 in 10.0 mi SSW 12.7 mph - N/A   Clear
10:15 PM 60.8 °F 42.8 °F 52% 29.97 in 10.0 mi SSW 12.7 mph - N/A   Clear
10:35 PM 59.0 °F 42.8 °F 55% 29.97 in 10.0 mi SW 12.7 mph - N/A   Clear
10:55 PM 59.0 °F 44.6 °F 59% 29.97 in 10.0 mi SW 11.5 mph - N/A   Clear
11:15 PM 57.2 °F 41.0 °F 55% 29.98 in 10.0 mi SW 9.2 mph - N/A   Clear
11:35 PM 57.2 °F 42.8 °F 59% 29.97 in 10.0 mi SW 11.5 mph 16.1 mph N/A   Clear
11:55 PM 59.0 °F 44.6 °F 59% 29.98 in 10.0 mi SW 12.7 mph - N/A   Clear